Tracking 31027 objects as of 19-Jul-2025
HD Live streaming from Space Station
objects crossing your sky now

TIANQI 34

Track TIANQI 34 now!
10-day predictions


NORAD ID: 62366
Int'l Code: 2024-245B
Perigee: 901.0 km
Apogee: 907.6 km
Inclination: 45.0 °
Period: 102.9 minutes
Semi major axis: 7275 km
RCS: Unknown
Launch date: December 19, 2024
Source: People's Republic of China (PRC)
Launch site: Yellow Sea Launch Area, China (YSLA)
Your satellite tracking list
FLOCK 4X 28
Track 1 satellite(s)




NASA's NSSDC Master Catalog

Two Line Element Set (TLE):
1 62366U 24245B   25199.82086914  .00000023  00000-0  10439-3 0  9999
2 62366  44.9815   4.9191 0004548 240.9199 119.1178 13.99020730 29648
Source of the keplerian elements: AFSPC